Location: LewisvilleTX
(33.0462°N, 96.9942°W)
Time: 07:13:07
(UTC+00:00)

Envisat - Pass Details

Date: 04 October 2020
Orbit: 764 x 766 km, 98.1° (Epoch: 21 October)

Event Time Altitude Azimuth Distance (km) Brightness Sun altitude
Rises 00:44:45 0° 200° (SSW) 3,216 6.5 -8.3°
Reaches altitude 10° 00:47:34 10° 216° (SW) 2,294 6.0 -8.9°
Maximum altitude 00:51:22 21° 265° (W) 1,658 5.9 -9.7°
Drops below altitude 10° 00:55:10 10° 314° (NW) 2,304 6.2 -10.5°
Sets 00:58:02 0° 330° (NNW) 3,234 6.7 -11.1°
